Cortland, IL

7:32 AM CST on February 13, 2016 (GMT -0600)
De Kalb Taylor Municipal

Weather History for KDKB - June, 2013

Change the Weather History Date:

Wednesday, June 26, 2013

  Actual Average (KARR) Record (KARR)
Temperature  
Mean Temperature 74 °F 71 °F  
Max Temperature 80 °F 83 °F 96 °F (2005)
Min Temperature 68 °F 60 °F 47 °F (2004)
Degree Days  
Heating Degree Days 0 0  
Month to date heating degree days 40  
Since 1 June heating degree days 40  
Since 1 July heating degree days 6774  
Cooling Degree Days 9 7  
Month to date cooling degree days 127  
Year to date cooling degree days 168  
Since 1 June cooling degree days 127  
Growing Degree Days 24 (Base 50)    
Moisture  
Dew Point 69 °F    
Average Humidity 87    
Maximum Humidity 91    
Minimum Humidity 77    
Precipitation  
Precipitation 0.12 in 0.09 in 0.50 in (2010)
Month to date precipitation 3.65  
Year to date precipitation 16.53  
Sea Level Pressure  
Sea Level Pressure 29.78 in    
Wind  
Wind Speed 9 mph (SE)    
Max Wind Speed 21 mph    
Max Gust Speed 32 mph    
Visibility 10 miles    
Events Rain , Thunderstorm    
T = Trace of Precipitation, MM = Missing Value Source: NWS Daily Summary

Daily Weather History Graph

Daily Weather History Graph

Search for Another Location

Airport or City:

Trip Planner

Search our weather history database for the weather conditions in past years. The results will help you decide how hot, cold, wet, or windy it might be!

Date:

Astronomy

Jun. 26, 2013 Rise Set
Actual Time 5:21 AM CDT 8:34 PM CDT
Civil Twilight 4:46 AM CDT 9:08 PM CDT
Nautical Twilight 4:02 AM CDT 9:52 PM CDT
Astronomical Twilight 3:09 AM CDT 10:46 PM CDT
Moon 10:52 PM CDT (6/26) 9:16 AM CDT (6/26)
Length of Visible Light 16h 21m
Length of Day
15h 13m
Waning Gibbous, 85% of the Moon is Illuminated
Jun 26
Waning Gibbous
Jun 29
Last Quarter
Jul 8
New
Jul 15
First Quarter
Jul 22
Full

Hourly Weather History & Observations

Time (CDT) Temp. Heat Index Dew Point Humidity Pressure Visibility Wind Dir Wind Speed Gust Speed Precip Events Conditions
12:15 AM 71.2 °F - 68.2 °F 90% 29.85 in 10.0 mi South 10.4 mph - N/A Rain , Thunderstorm Light Thunderstorms and Rain
12:35 AM 70.7 °F - 68.0 °F 91% 29.84 in 10.0 mi SSE 8.1 mph - N/A   Clear
12:55 AM 70.5 °F - 67.5 °F 90% 29.83 in 10.0 mi SE 3.5 mph - N/A   Clear
1:15 AM 69.8 °F - 66.6 °F 89% 29.82 in 10.0 mi ESE 5.8 mph - N/A   Scattered Clouds
1:35 AM 69.8 °F - 67.1 °F 91% 29.83 in 10.0 mi SSE 6.9 mph - N/A   Scattered Clouds
1:55 AM 69.8 °F - 67.1 °F 91% 29.82 in 10.0 mi SSE 5.8 mph - N/A   Clear
2:15 AM 70.0 °F - 67.1 °F 91% 29.81 in 10.0 mi SSE 5.8 mph - N/A Thunderstorm Scattered Clouds
2:35 AM 69.4 °F - 66.6 °F 91% 29.79 in 10.0 mi SSE 9.2 mph - N/A   Scattered Clouds
2:55 AM 69.4 °F - 66.6 °F 91% 29.79 in 10.0 mi SSE 6.9 mph - N/A Thunderstorm Thunderstorm
3:15 AM 69.8 °F - 66.9 °F 91% 29.79 in 10.0 mi South 8.1 mph - N/A Thunderstorm Scattered Clouds
3:35 AM 70.0 °F - 67.1 °F 91% 29.76 in 10.0 mi South 11.5 mph - N/A Rain , Thunderstorm Rain
3:55 AM 70.7 °F - 67.6 °F 90% 29.75 in 10.0 mi South 6.9 mph - N/A   Scattered Clouds
4:15 AM 70.7 °F - 67.6 °F 90% 29.78 in 10.0 mi South 5.8 mph - N/A Thunderstorm Clear
4:35 AM 70.7 °F - 67.6 °F 90% 29.78 in 10.0 mi South 6.9 mph - N/A   Clear
4:55 AM 70.7 °F - 67.6 °F 90% 29.79 in 10.0 mi ESE 6.9 mph - N/A Thunderstorm Scattered Clouds
5:15 AM 70.0 °F - 67.1 °F 91% 29.79 in 7.0 mi SSE 5.8 mph - N/A   Mostly Cloudy
5:35 AM 69.8 °F - 66.7 °F 90% 29.79 in 7.0 mi SE 4.6 mph - N/A Thunderstorm Mostly Cloudy
5:55 AM 70.0 °F - 67.1 °F 91% 29.81 in 7.0 mi SE 6.9 mph - N/A   Mostly Cloudy
6:15 AM 70.3 °F - 67.5 °F 91% 29.81 in 7.0 mi ESE 6.9 mph - N/A   Mostly Cloudy
6:35 AM 70.7 °F - 67.5 °F 89% 29.81 in 7.0 mi ESE 8.1 mph - N/A   Overcast
6:55 AM 70.7 °F - 67.8 °F 91% 29.80 in 7.0 mi East 11.5 mph - N/A   Overcast
7:15 AM 71.6 °F - 68.7 °F 91% 29.80 in 10.0 mi SE 15.0 mph 19.6 mph N/A   Overcast
7:35 AM 73.0 °F - 70.0 °F 90% 29.80 in 10.0 mi SE 12.7 mph - N/A   Overcast
7:55 AM 73.0 °F - 70.0 °F 90% 29.81 in 10.0 mi East 12.7 mph - N/A   Overcast
8:15 AM 70.7 °F - 67.1 °F 88% 29.81 in 10.0 mi ESE 12.7 mph 19.6 mph N/A   Overcast
8:35 AM 70.7 °F - 66.6 °F 87% 29.81 in 10.0 mi East 18.4 mph - N/A   Overcast
8:55 AM 70.5 °F - 66.4 °F 87% 29.79 in 10.0 mi East 17.3 mph - N/A   Overcast
9:15 AM 70.7 °F - 66.6 °F 87% 29.77 in 10.0 mi ESE 19.6 mph 23.0 mph N/A   Overcast
9:55 AM 70.0 °F - 65.8 °F 87% 29.76 in 10.0 mi ESE 20.7 mph 27.6 mph N/A   Overcast
10:15 AM 69.3 °F - 65.5 °F 88% 29.77 in 10.0 mi ESE 18.4 mph 32.2 mph N/A   Mostly Cloudy
10:35 AM 68.4 °F - 65.5 °F 90% 29.78 in 3.0 mi SE 15.0 mph 23.0 mph 0.08 in Rain Heavy Rain
10:55 AM 68.2 °F - 65.3 °F 90% 29.80 in 7.0 mi SE 15.0 mph 19.6 mph 0.12 in Rain Light Rain
11:15 AM 68.0 °F - 65.1 °F 90% 29.80 in 10.0 mi ESE 13.8 mph 18.4 mph N/A   Overcast
11:35 AM 68.9 °F - 65.8 °F 90% 29.80 in 10.0 mi ESE 9.2 mph - N/A   Overcast
11:55 AM 69.3 °F - 66.2 °F 90% 29.80 in 10.0 mi SE 6.9 mph - N/A   Overcast
12:15 PM 70.0 °F - 66.9 °F 90% 29.80 in 10.0 mi SE 9.2 mph - N/A   Mostly Cloudy
12:35 PM 72.0 °F - 68.7 °F 89% 29.79 in 10.0 mi SE 10.4 mph - N/A   Scattered Clouds
12:55 PM 73.8 °F - 70.2 °F 88% 29.77 in 10.0 mi SSE 11.5 mph - N/A   Clear
1:15 PM 76.1 °F - 71.4 °F 85% 29.75 in 10.0 mi South 13.8 mph - N/A   Clear
1:35 PM 75.7 °F - 71.6 °F 87% 29.75 in 10.0 mi South 15.0 mph 19.6 mph N/A   Scattered Clouds
1:55 PM 76.3 °F - 71.6 °F 85% 29.76 in 10.0 mi South 12.7 mph - N/A   Scattered Clouds
2:15 PM 78.3 °F - 73.4 °F 85% 29.77 in 10.0 mi South 11.5 mph - N/A   Clear
2:35 PM 79.3 °F - 72.3 °F 79% 29.77 in 10.0 mi WSW 12.7 mph - N/A   Scattered Clouds
2:55 PM 79.7 °F - 72.0 °F 77% 29.77 in 10.0 mi WSW 10.4 mph - N/A   Mostly Cloudy
3:15 PM 78.3 °F - 70.3 °F 77% 29.77 in 10.0 mi WSW 12.7 mph 17.3 mph N/A   Mostly Cloudy
3:35 PM 78.6 °F - 72.0 °F 80% 29.77 in 10.0 mi West 8.1 mph - N/A   Mostly Cloudy
4:15 PM 78.3 °F - 71.2 °F 79% 29.76 in 10.0 mi WSW 10.4 mph - N/A   Scattered Clouds
4:35 PM 79.7 °F - 72.5 °F 79% 29.76 in 10.0 mi West 11.5 mph 18.4 mph N/A   Scattered Clouds
5:15 PM 79.7 °F - 72.7 °F 79% 29.75 in 10.0 mi West 11.5 mph 18.4 mph N/A   Mostly Cloudy
5:35 PM 80.6 °F 85.5 °F 73.8 °F 80% 29.75 in 10.0 mi West 13.8 mph - N/A   Scattered Clouds
5:55 PM 79.7 °F - 73.6 °F 81% 29.75 in 10.0 mi NW 9.2 mph - N/A   Scattered Clouds
6:15 PM 80.1 °F 84.5 °F 73.9 °F 81% 29.76 in 10.0 mi WNW 10.4 mph - N/A   Scattered Clouds
6:35 PM 79.7 °F - 73.0 °F 80% 29.75 in 10.0 mi NW 5.8 mph - N/A   Scattered Clouds
6:55 PM 78.8 °F - 72.1 °F 80% 29.75 in 10.0 mi NW 6.9 mph - N/A   Clear
7:15 PM 78.3 °F - 72.7 °F 83% 29.75 in 10.0 mi NNW 4.6 mph - N/A   Clear
7:35 PM 78.3 °F - 73.0 °F 84% 29.76 in 10.0 mi North 6.9 mph - N/A   Clear
7:55 PM 76.3 °F - 71.6 °F 85% 29.77 in 10.0 mi North 5.8 mph - N/A   Clear
8:15 PM 75.6 °F - 71.4 °F 87% 29.76 in 10.0 mi NNE 4.6 mph - N/A   Clear
8:35 PM 73.4 °F - 70.0 °F 89% 29.76 in 10.0 mi NE 4.6 mph - N/A   Clear
8:55 PM 73.0 °F - 69.8 °F 90% 29.76 in 10.0 mi NNE 4.6 mph - N/A   Clear
9:15 PM 71.6 °F - 68.2 °F 89% 29.77 in 10.0 mi NE 3.5 mph - N/A   Clear
9:35 PM 71.6 °F - 68.2 °F 89% 29.77 in 10.0 mi NE 3.5 mph - N/A   Clear
9:55 PM 70.9 °F - 67.6 °F 89% 29.79 in 10.0 mi Calm Calm - N/A   Clear
10:15 PM 70.7 °F - 67.5 °F 89% 29.79 in 10.0 mi Calm Calm - N/A   Clear
10:35 PM 71.1 °F - 68.0 °F 90% 29.79 in 10.0 mi Calm Calm - N/A   Clear
10:55 PM 70.3 °F - 67.3 °F 90% 29.80 in 7.0 mi Calm Calm - N/A   Clear
11:15 PM 70.7 °F - 67.5 °F 89% 29.81 in 10.0 mi Calm Calm - N/A   Clear
11:35 PM 69.6 °F - 66.4 °F 89% 29.81 in 7.0 mi NE 3.5 mph - N/A   Clear
11:55 PM 69.3 °F - 66.2 °F 90% 29.81 in 7.0 mi ENE 3.5 mph - N/A   Clear